{"data":{"norad_id":45751,"intl_designator":"2020-038X","name":"STARLINK-1464","alt_names":[],"object_type":"PAYLOAD","status":"ACTIVE","operator":null,"country":"US","launch_date":"2020-06-13","launch_site_code":"AFETR","launch_vehicle":null,"mission":null,"orbit_class":"UNKNOWN","rcs_meters":null,"size_class":null,"mass_kg":null,"dimensions":null,"purposes":["comms"],"wikipedia_slug":null,"has_3d_model":false,"image_url":null,"decayed_at":null,"tle_current":{"epoch":"2026-05-24T20:19:37.994592Z","epoch_age_seconds":91299,"freshness":"FRESH","line1":"1 45751U 20038X   26144.84696753  .00040413  00000+0  63578-3 0  9993","line2":"2 45751  53.0459 199.9002 0003812 358.0620   2.0374 15.53221757328454","mean_motion":15.53221757,"eccentricity":0.0003812,"inclination_deg":53.0459,"raan_deg":199.9002,"arg_perigee_deg":358.062,"mean_anomaly_deg":2.0374,"bstar":0.00063578,"rev_number":32845,"period_min":92.710522081619,"perigee_km":404.74007458928,"apogee_km":409.91331210909,"semimajor_km":6785.4636933492,"source":"CELESTRAK","updated_at":"2026-05-25T13:38:16.433809Z"}}}